Weather History for KBMG - September, 2011

Change the Weather History Date:

Thursday, September 29, 2011

  Actual Average Record
Temperature  
Mean Temperature 64 °F 60 °F  
Max Temperature 81 °F 73 °F - ()
Min Temperature 46 °F 47 °F - ()
Degree Days  
Heating Degree Days 1 6  
Month to date heating degree days 94 71  
Since 1 July heating degree days 94 78  
Cooling Degree Days 0 1  
Month to date cooling degree days 92 95  
Year to date cooling degree days 1170 912  
Growing Degree Days 13 (Base 50)    
Moisture  
Dew Point 49 °F    
Average Humidity 73    
Maximum Humidity 100    
Minimum Humidity 45    
Precipitation  
Precipitation 0.02 in 0.13 in - ()
Month to date precipitation 5.26 3.21  
Year to date precipitation 43.88 36.40  
Sea Level Pressure  
Sea Level Pressure 29.80 in    
Wind  
Wind Speed 6 mph (West)    
Max Wind Speed 18 mph    
Max Gust Speed 30 mph    
Visibility 7 miles    
Events Rain    
T = Trace of Precipitation, MM = Missing Value Source: NWS Daily Summary

Daily Weather History Graph

Daily Weather History Graph

Search for Another Location

Airport or City:

Trip Planner

Search our weather history database for the weather conditions in past years. The results will help you decide how hot, cold, wet, or windy it might be!

Date:

Astronomy

Sep. 29, 2011 Rise Set
Actual Time 7:40 AM EDT 7:32 PM EDT
Civil Twilight 7:13 AM EDT 7:59 PM EDT
Nautical Twilight 6:42 AM EDT 8:30 PM EDT
Astronomical Twilight 6:11 AM EDT 9:01 PM EDT
Moon 10:22 AM EDT (9/29) 8:46 PM EDT (9/29)
Length of Visible Light 12h 45m
Length of Day
11h 52m
Waxing Crescent, 7% of the Moon is Illuminated
Sep 29
Waxing Crescent
Oct 3
First Quarter
Oct 11
Full
Oct 19
Last Quarter
Oct 26
New

Hourly Weather History & Observations

Time (EDT) Temp. Heat Index Dew Point Humidity Pressure Visibility Wind Dir Wind Speed Gust Speed Precip Events Conditions
12:53 AM 48.9 °F - 48.9 °F 100% 29.83 in 8.0 mi Calm Calm - N/A   Clear
1:07 AM 50.0 °F - 48.2 °F 94% 29.84 in 1.8 mi Calm Calm - N/A   Clear
1:14 AM 50.0 °F - 48.2 °F 94% 29.83 in 4.0 mi Calm Calm - N/A   Clear
1:53 AM 48.0 °F - 46.9 °F 96% 29.83 in 4.0 mi Calm Calm - N/A   Clear
2:53 AM 46.9 °F - 46.0 °F 97% 29.83 in 4.0 mi Calm Calm - 0.01 in   Clear
3:26 AM 46.4 °F - 46.4 °F 100% 29.83 in 1.8 mi Calm Calm - N/A   Clear
3:35 AM 48.2 °F - 46.4 °F 93% 29.83 in 3.0 mi Calm Calm - N/A   Clear
4:53 AM 46.9 °F - 45.0 °F 93% 29.82 in 5.0 mi Calm Calm - N/A   Clear
5:53 AM 46.9 °F - 46.0 °F 97% 29.83 in 7.0 mi Calm Calm - N/A   Clear
6:53 AM 50.0 °F - 48.9 °F 96% 29.83 in 6.0 mi Calm Calm - N/A   Clear
7:53 AM 46.9 °F - 46.0 °F 97% 29.85 in 3.0 mi Calm Calm - N/A   Clear
8:53 AM 55.0 °F - 52.0 °F 89% 29.86 in 7.0 mi West 3.5 mph - N/A   Partly Cloudy
11:53 AM 69.1 °F - 52.0 °F 54% 29.83 in 10.0 mi WSW 5.8 mph - N/A   Clear
12:53 PM 73.0 °F - 53.1 °F 49% 29.82 in 10.0 mi West 8.1 mph - N/A   Clear
1:53 PM 75.0 °F - 55.0 °F 50% 29.78 in 10.0 mi WSW 9.2 mph - N/A   Clear
2:53 PM 78.1 °F - 55.9 °F 46% 29.75 in 10.0 mi SW 13.8 mph 20.7 mph N/A   Clear
3:53 PM 79.0 °F - 57.0 °F 47% 29.72 in 10.0 mi WSW 11.5 mph 20.7 mph N/A   Clear
4:53 PM 80.1 °F 80.4 °F 57.0 °F 45% 29.69 in 10.0 mi WSW 11.5 mph 20.7 mph N/A   Partly Cloudy
5:53 PM 73.9 °F - 51.1 °F 45% 29.72 in 10.0 mi NNW 13.8 mph 26.5 mph N/A   Overcast
6:53 PM 68.0 °F - 50.0 °F 52% 29.75 in 10.0 mi NW 8.1 mph - 0.00 in Rain Light Rain
8:53 PM 62.1 °F - 44.1 °F 52% 29.79 in 10.0 mi WNW 11.5 mph 17.3 mph 0.00 in   Mostly Cloudy
9:53 PM 60.1 °F - 39.9 °F 47% 29.78 in 10.0 mi West 5.8 mph - N/A   Clear
10:53 PM 60.1 °F - 39.9 °F 47% 29.77 in 10.0 mi West 6.9 mph - N/A   Clear